Location: Saluda
(35.2377°N, 82.3468°W)
Time: 03:36:18
(UTC+00:00)

Vanguard 2 Rocket - Pass Details

Date: 03 October 2022
Orbit: 555 x 3321 km, 32.9° (Epoch: 05 December)

Event Time Altitude Azimuth Distance (km) Brightness Sun altitude
Rises 06:01:56 0° 263° (W) 6,194 - -57.2°
Reaches altitude 10° 06:06:42 10° 262° (W) 4,754 - -56.8°
Maximum altitude 06:18:46 77° 179° (S) 1,414 - -55.8°
Drops below altitude 10° 06:25:21 10° 94° (E) 2,707 - -55.1°
Sets 06:27:23 0° 93° (E) 3,431 - -54.9°
